Weather observations for the past three days for
Sandberg
Metric (Imperial)
Date Time (pdt) Wind (kph) Vis. (km) Weather Sky Cond. Temperature (ºC) Relative Humidity Wind Chill (°C) Heat Index (°C) Pressure Precipitation (cm)
Air Dwpt 6 hour altimeter (cm) sea level (mb) 1 hr 3 hr 6 hr
Max. Min.
10 07:51 N 15 16.09 Fair CLR 20 1.7 30% 76.4 1013.7
10 05:51 NW 26 16.09 Fair CLR 16.1 2.2 39% 76.3 1012.3
10 04:51 NW 31 16.09 Fair CLR 16.1 2.2 17.8 16.1 39% 76.3 1011.9
10 01:51 NW 30 16.09 Fair CLR 17.8 -0.6 29% 76.3 1011.8
10 00:51 NW 26 16.09 Fair CLR 17.8 0 30% 76.33 1012.2
09 23:51 NW 24 16.09 Fair CLR 17.8 -1.1 28% 76.35 1012.6
09 22:51 N 24 G 39 16.09 Fair CLR 17.2 -1.7 24.4 16.1 28% 76.35 1012.9
09 21:51 N 19 16.09 Fair CLR 17.2 -1.1 29% 76.38 1013.2
09 20:51 NW 26 16.09 Fair CLR 17.2 2.2 37% 76.35 1013.1
09 19:51 NW 17 16.09 Fair CLR 17.8 3.3 38% 76.3 1012.8
09 18:51 NW 20 16.09 Fair CLR 20.6 5 36% 76.28 1012.4
09 17:51 NW 15 16.09 Fair CLR 22.8 5.6 33% 76.28 1012.4
09 16:51 W 7 16.09 Fair CLR 24.4 5.6 26.1 22.2 30% 25 76.3 1012.2
09 15:51 Vrbl 9 G 30 16.09 Fair CLR 26.1 6.1 28% 26 76.3 1012.2
09 14:51 Vrbl 9 G 35 16.09 Fair CLR 25 3.3 24% 25 76.33 1012.6
09 13:51 Vrbl 11 G 28 16.09 Fair CLR 25 3.9 26% 25 76.35 1012.9
09 12:51 Calm 16.09 Fair CLR 25 3.3 24% 25 76.38 1013.1
09 11:51 N 15 16.09 Fair CLR 24.4 1.7 23% 25 76.4 1013.3
09 10:51 N 13 G 28 16.09 Fair CLR 22.8 2.2 22.8 12.2 26% 76.4 1013.6
09 09:51 N 17 G 30 16.09 Fair CLR 21.1 0 25% 76.4 1013.4
09 08:51 Calm 16.09 Fair CLR 18.9 -3.3 22% 76.38 1013.4
09 07:51 N 22 G 39 16.09 Fair CLR 16.7 -2.2 28% 76.35 1013.5
09 06:51 N 22 G 43 16.09 Fair CLR 14.4 -0.6 36% 76.33 1013.2
09 05:51 N 41 G 52 16.09 Fair and Breezy CLR 12.8 1.1 45% 76.3 1012.9
09 04:51 NW 39 G 52 16.09 Fair and Breezy CLR 12.8 3.9 17.2 12.2 55% 76.3 1012.8
09 03:51 NW 28 G 41 16.09 Fair CLR 12.8 4.4 57% 76.33 1013.0
09 02:51 NW 31 G 46 16.09 Fair CLR 13.3 3.9 53% 76.35 1013.2
09 01:51 NW 28 G 48 16.09 Fair CLR 14.4 2.8 46% 76.38 1013.5
09 00:51 NW 37 G 57 16.09 Fair and Breezy CLR 15 2.8 44% 76.4 1013.6
08 23:51 N 37 G 54 16.09 Fair and Breezy CLR 16.1 1.7 38% 76.43 1014.0
08 22:51 N 37 G 56 16.09 Fair and Breezy CLR 16.7 3.3 21.7 16.7 41% 76.43 1014.2
08 21:51 Calm 16.09 Fair CLR 17.2 1.7 35% 76.43 1014.3
08 20:51 N 19 G 67 16.09 Fair CLR 17.8 2.8 37% 76.4 1014.0
08 19:51 N 24 G 41 16.09 Fair CLR 17.8 2.2 35% 76.4 1014.1
08 18:51 NW 28 G 56 16.09 Fair CLR 20.6 -0.6 24% 76.38 1013.6
08 17:51 NW 30 G 39 16.09 Fair CLR 21.1 5 35% 76.38 1013.8
08 16:51 NW 31 G 48 16.09 Fair CLR 21.7 5 22.8 20 34% 76.4 1013.9
08 15:51 NW 28 G 52 16.09 Fair CLR 22.2 5 33% 76.43 1014.3
08 14:51 N 22 G 56 16.09 Fair CLR 22.2 4.4 31% 76.45 1014.6
08 13:51 N 35 G 63 16.09 Fair and Breezy CLR 22.2 5.6 34% 76.5 1015.0
08 12:51 N 35 G 57 16.09 Fair and Breezy CLR 22.2 5.6 34% 76.5 1015.0
08 11:51 N 37 G 57 16.09 Fair and Breezy CLR 21.7 5 34% 76.53 1015.3
08 10:51 N 31 G 54 16.09 Fair CLR 20 8.3 20 13.9 47% 76.53 1015.8
08 09:51 N 24 G 56 16.09 Fair CLR 18.3 10 59% 76.56 1016.1
08 08:51 N 24 G 48 16.09 Fair CLR 16.7 11.1 70% 76.53 1016.3
08 07:51 NW 43 G 54 16.09 Fair and Windy CLR 15 11.1 78% 76.5 1016.1
08 06:51 NW 33 G 56 16.09 Fair and Breezy CLR 14.4 10 75% 76.48 1015.4
08 05:51 NW 37 G 69 16.09 Fair and Breezy CLR 13.9 9.4 74% 76.45 1015.0
08 04:51 NW 39 G 54 16.09 Fair and Breezy CLR 14.4 9.4 16.7 13.9 72% 76.45 1014.5
08 03:51 NW 41 G 59 16.09 Fair and Breezy CLR 14.4 9.4 72% 76.45 1014.5
08 02:51 NW 31 G 52 16.09 Fair CLR 15 9.4 69% 76.48 1014.7
08 01:51 NW 22 G 54 16.09 Fair CLR 15.6 8.3 62% 76.53 1015.0
08 00:51 NW 20 G 35 16.09 Fair CLR 16.1 7.8 58% 76.58 1015.5
07 23:51 Vrbl 9 16.09 Fair CLR 16.7 5.6 48% 76.58 1015.7
07 22:51 Calm 16.09 Fair CLR 16.1 6.1 22.2 15.6 52% 76.58 1015.9
07 21:51 N 15 16.09 Fair CLR 16.1 8.3 60% 76.58 1016.1
07 20:51 Calm 16.09 Fair CLR 15.6 8.9 65% 76.53 1015.8
07 19:51 Calm 16.09 Fair CLR 16.1 9.4 65% 76.5 1015.6
07 18:51 NW 28 G 41 16.09 Fair CLR 18.3 8.9 54% 76.48 1015.0
07 17:51 NW 30 G 46 16.09 Fair CLR 20 8.9 49% 76.48 1015.1
07 16:51 NW 28 G 46 16.09 Fair CLR 22.2 7.8 26.1 21.7 40% 76.48 1014.8
07 15:51 NW 24 G 46 16.09 Fair CLR 22.2 8.3 41% 76.48 1014.9
07 14:51 NW 35 16.09 Fair and Breezy CLR 23.3 6.1 33% 76.5 1015.2
07 13:51 NW 33 16.09 Fair and Breezy CLR 25 6.1 30% 25 76.53 1015.4
07 12:51 NW 20 G 30 16.09 Fair CLR 25.6 3.9 25% 25 76.56 1015.7
07 11:51 Calm 16.09 Fair CLR 24.4 3.3 25% 25 76.61 1016.3
07 10:51 Vrbl 6 16.09 Fair CLR 23.3 3.3 23.3 13.9 27% 76.61 1016.7
07 09:51 Vrbl 6 16.09 Fair CLR 21.7 3.9 31% 76.61 1016.9
07 08:51 N 11 16.09 Fair CLR 20 3.3 33% 76.61 1016.7
Date Time (pdt) Wind (kph) Vis. (km) Weather Sky Cond. Air Dwpt Max. Min. Relative Humidity Wind Chill (°C) Heat Index (°C) altimeter (cm) sea level (mb) 1 hr 3 hr 6 hr
6 hour
Temperature (ºC) Pressure Precipitation (cm)